Terminal Aerodrome Forecast
Issued by NWS

Home | Current Version | Previous Version | Graphics & Text | Print | Product List | Glossary Off
Versions: 1 2 3 4 5 6 7 8 9 10 11 12 13 14 15 16 17 18 19 20 21 22 23 24 25 26 27 28 29 30 31 32 33 34 35 36 37 38 39 40 41 42 43 44 45 46 47 48 49 50

000
FTUS43 KDDC 300829 AAC
TAFGCK
TAF AMD
KGCK 300829Z 3008/0106 30013KT 5SM BR OVC010
     FM301500 33015G25KT P6SM BKN040
     FM010000 34012KT P6SM SCT040=

USA.gov is the U.S. government's official web portal to all federal, state and local government web resources and services.